Location: Bullfrog
(37.5121°N, 110.7330°W)
Time: 15:43:13
(UTC-06:00)

N. Korean satellite - Pass Details

Date: 28 September 2021
Orbit: 450 x 494 km, 97.3° (Epoch: 28 October)

Event Time Altitude Azimuth Distance (km) Brightness Sun altitude
Rises 05:33:01 0° 37° (NE) 2,544 11.0 -21.1°
Reaches altitude 10° 05:36:21 10° 71° (ENE) 1,669 10.5 -20.5°
Maximum altitude 05:37:39 12° 92° (E) 1,571 10.2 -20.2°
Drops below altitude 10° 05:38:57 10° 114° (ESE) 1,672 10.0 -20.0°
Sets 05:42:17 0° 148° (SSE) 2,555 10.5 -19.3°
